User: anonymous   Login
Location: Unspecified
(0.0000°N, 0.0000°E)
Time: 09:31:45
(UTC+00:00)
Language:

GOSAT - Orbit

View from above orbital plane
View from above orbital plane
View from above satellite
View from above satellite

Ground track
Ground track

The orbit data is extracted from the following two-line orbital elements,

1 33492U 09002A   17117.84316038 -.00000070 +00000-0 -38634-5 0  9990
2 33492 098.1154 229.9114 0001772 079.8047 280.3362 14.67523524442442
Epoch (UTC): 27 April 2017 20:14:09
Eccentricity: 0.0001772
inclination: 98.1154°
perigee height: 668 km
apogee height: 670 km
right ascension of ascending node: 229.9114°
argument of perigee: 79.8047°
revolutions per day: 14.67523524
mean anomaly at epoch: 280.3362°
orbit number at epoch: 44244

The dashed part of the orbit path shows where the satellite is in the earth's shadow,  

DLR